Regional Weather Roundup
Issued by NWS

Home | Current Version | Previous Version | Graphics & Text | Print | Product List | Glossary On
Versions: 1 2 3 4 5 6 7 8 9 10 11 12 13 14 15 16 17 18 19 20 21 22 23 24 25 26 27 28 29 30 31 32 33 34 35 36 37 38 39 40 41 42 43 44 45 46 47 48 49 50
000
ASUS43 KMKX 231000
RWRWI

WISCONSIN REGIONAL WEATHER ROUNDUP
NATIONAL WEATHER SERVICE MILWAUKEE/SULLIVAN WI
500 AM CDT THU OCT 23 2014

NOTE: "FAIR" INDICATES FEW OR NO CLOUDS BELOW 12,000 FEET WITH NO
SIGNIFICANT WEATHER AND/OR OBSTRUCTIONS TO VISIBILITY.

WIZ001-002-006>008-014>016-023>028-231100-
NORTHWEST WISCONSIN

CITY           SKY/WX    TMP DP  RH WIND       PRES   REMARKS
SUPERIOR ARPT  DRIZZLE   51  44  78 SW6       29.97F
ASHLAND        CLOUDY    51  41  68 S7        30.01F
HAYWARD        RAIN      49  42  77 S10       30.01F
SIREN          CLOUDY    52  43  71 S9        30.00R
CUMBERLAND     CLOUDY    46  41  81 SE7       30.02S
RICE LAKE      LGT RAIN  47  43  85 SE9       30.04F
CHETEK         RAIN      47  44  89 SE8       30.04S
LADYSMITH      CLOUDY    46  42  85 SE5       30.07F
EAU CLAIRE     CLOUDY    49  42  77 SE8       30.05S
MENOMONIE      DRIZZLE   48  45  87 E6        30.04F
NEW RICHMOND   RAIN      48  44  85 S8        30.01S
OSCEOLA        RAIN      49  49 100 SE6       30.02F
$$

WIZ003>005-009-010-017-018-231100-
NORTH CENTRAL WISCONSIN

CITY           SKY/WX    TMP DP  RH WIND       PRES   REMARKS
MANITOWISH WTR CLOUDY    45  37  73 S8        30.06F
ARBOR VITAE    MOCLDY    46  37  71 S9        30.08S
WOODRUFF       MOCLDY    46  37  71 S9        30.08S
RHINELANDER    CLOUDY    45  35  68 S9        30.10S
EAGLE RIVER    CLOUDY    43  35  72 S3        30.09S
LAND O LAKES   CLOUDY    45  36  70 S7        30.09S
PHILLIPS       LGT RAIN  45  39  79 S9        30.06F
TOMAHAWK       CLOUDY    43  37  78 CALM      30.11S
MEDFORD        RAIN      41  38  90 SE7       30.09F
MERRILL        CLOUDY    42  38  87 S3        30.12S
$$

WIZ029-030-035-036-043>047-231100-
CENTRAL WISCONSIN

CITY           SKY/WX    TMP DP  RH WIND       PRES   REMARKS
WAUSAU         CLOUDY    43  37  79 SE3       30.12S
MOSINEE        CLOUDY    39  37  93 SE7       30.14S WCI  34
MARSHFIELD     CLOUDY    43  39  86 SE8       30.11S
STEVENS POINT  PTCLDY    37  35  92 SE6       30.15S WCI  32
WAUPACA        CLEAR     34  33  95 CALM      30.18S
WAUTOMA        NOT AVBL
WISC RAPIDS    CLOUDY    42  37  82 S7        30.15S
CAMP DOUGLAS   CLOUDY    43  41  93 E5        30.13S
$$

WIZ011>013-019>022-031-037>040-048>050-231100-
NORTHEAST WISCONSIN

CITY           SKY/WX    TMP DP  RH WIND       PRES   REMARKS
ANTIGO         PTCLDY    36  36  99 SE8       30.14S FOG     WCI  29
SHAWANO          N/A     36  34  94 CALM      30.18S FOG
OCONTO         PTCLDY    32  32 100 CALM      30.19S
STURGEON BAY   CLEAR     43  37  81 S8        30.19F
GREEN BAY      MOCLDY    39  37  92 S7        30.19F WCI  34
MANITOWOC      NOT AVBL
APPLETON       PTCLDY    37  34  87 S6        30.19S WCI  33
CLINTONVILLE   PTCLDY    30  30 100 CALM      30.18S
OSHKOSH        CLEAR     35  33  92 SW3       30.18S
$$

WIZ032>034-041-042-053>061-231100-
SOUTHWEST WISCONSIN

CITY           SKY/WX    TMP DP  RH WIND       PRES   REMARKS
LA CROSSE      LGT RAIN  51  43  74 SE3       30.08F
SPARTA         CLOUDY    51  36  57 S9        30.11S
VIROQUA        CLOUDY    47  38  69 S7        30.10F
BOSCOBEL       CLOUDY    49  37  63 S3        30.14F
PRAIRIE DU CHI CLOUDY    51  38  63 SE9       30.11F
PLATTEVILLE    CLOUDY    40  36  86 E3        30.17S
$$

WIZ056-057-062-063-064-067-068-231100-
SOUTH CENTRAL WISCONSIN

CITY           SKY/WX    TMP DP  RH WIND       PRES   REMARKS
REEDSBURG      CLOUDY    45  36  71 S8        30.15S
BARABOO/DELLS  CLOUDY    42  35  74 S8        30.16R
LONE ROCK      NOT AVBL
MINERAL POINT  PTCLDY    41  36  81 SE8       30.16S
MADISON        PTCLDY    39  34  82 S7        30.20R WCI  34
MIDDLETON      PTCLDY    39  34  83 CALM      30.19R
WATERTOWN      CLEAR     35  35  97 CALM      30.19R
MONROE         PTCLDY    39  36  87 S10       30.17R WCI  32
JANESVILLE     CLEAR     34  32  93 SE6       30.18F WCI  29
$$

WIZ051-052-058>065-066-070>072-231100-
SOUTHEAST WISCONSIN

CITY           SKY/WX    TMP DP  RH WIND       PRES   REMARKS
MILWAUKEE      PTCLDY    39  36  89 S6        30.21S WCI  35
WAUKESHA       CLEAR     30  30 100 SE3       30.21S FOG
MILWAUKEE/TIMM PTCLDY    32  30  93 CALM      30.22S
RACINE         CLEAR     39  37  92 S6        30.22F WCI  35
BURLINGTON     PTCLDY    26  25  99 CALM      30.21S FOG
KENOSHA        CLEAR     37  35  92 S6        30.21F WCI  32
FOND DU LAC    CLEAR     37  32  82 CALM      30.19S
SHEBOYGAN      PTCLDY    29  28  96 CALM      30.20S
WEST BEND      PTCLDY    32  30  93 SE3       30.20S
JUNEAU         CLEAR     36  33  89 CALM      30.20R
$$

LSZ147-162-231100-
LAKE SUPERIOR

STATION/POSITION TIME  TEMP    WIND        PRES    WAVE
                       AIR SEA DIR/SP/G            HT/PER
                 (UTC) (F)     (DEG/KT/KT) (MB)    (FT/S)
W MID LAKE BUOY  0850   48 46  140/ 14/ 17 1017.2F   1/ 3
DEVILS ISLAND    0900   51     180/  9/ 12 1016.6F
PORT WING        0900   53     180/  8/ 12 1015.6F
SAXON HARBOR     0900   54     180/  5/ 11 1016.3F
$$

LMZ867-665-643>646-231100-
LAKE MICHIGAN

STATION/POSITION TIME  TEMP    WIND        PRES    WAVE
                       AIR SEA DIR/SP/G            HT/PER
                 (UTC) (F)     (DEG/KT/KT) (MB)    (FT/S)
CHAMBERS ISLAND  0900   46     170/  6/ 12 1022.4F
N MID LAKE BUOY  0850   47 51  190/ 16/ 19 1023.1F   2/ 3
NORTHPORT PIER   0900   46     160/  4/  7 1022.4F
SISTER BAY       0842          170/  9/ 12   N/A
ALGOMA LAKESHORE 0911          230/ 10/ 11   N/A
KEWAUNEE LAKESHO 0900   39     280/  3/  4 1021.9F
SHEBOYGAN LAKESH 0900   41 51  220/  5/  5 1023.8S
PORT WASHINGTON  0900   40     260/  4/  6 1023.7
ATWATER BUOY     0900   47     180/  8/ 10 1023.9F
MILWAUKEE LAKESH 0900   44     200/  5/  7   N/A
S MID LAKE BUOY  0850   50 54  170/ 12/ 14 1024.2F   2/ 4
KENOSHA   LAKESH 0900   45     200/  7/  9 1023.0F
$$

TC  - TEMPERATURE IN CELSIUS
VSB - VISIBILITY IN STATUTE MILES
WCI - WIND CHILL INDEX
HX  - HEAT INDEX




USA.gov is the U.S. government's official web portal to all federal, state and local government web resources and services.